Location: North Smoke Tower Site
(30.5430°N, 82.3390°W)
Time: 09:15:31
(UTC-05:00)

Cosmos 1980 Rocket - Visible Passes

Search period start: 25 January 2015 00:00
Search period end: 04 February 2015 00:00
Orbit: 831 x 848 km, 71.0° (Epoch: 24 January)

Date Brightness Start Highest point End Pass type
(mag) Time Alt. Az. Time Alt. Az. Time Alt. Az.
25 Jan 4.4 05:42:07 10° NNE 05:46:20 22° ENE 05:50:42 10° ESE visible
25 Jan 4.0 18:47:09 10° ESE 18:48:04 11° E 18:48:07 11° E visible
25 Jan 2.9 20:26:01 10° SSW 20:29:58 46° SW 20:29:58 46° SW visible
26 Jan 4.5 05:26:39 10° NNE 05:30:40 21° ENE 05:34:54 10° ESE visible
26 Jan 2.2 20:10:22 10° SSW 20:15:57 76° WNW 20:16:03 75° WNW visible
27 Jan 4.5 05:11:10 10° NNE 05:15:01 19° ENE 05:19:04 10° ESE visible
27 Jan 2.5 06:53:57 10° NNW 06:59:18 46° WSW 07:04:38 10° S visible
27 Jan 2.1 19:54:45 10° SSW 20:00:21 81° WNW 20:02:08 45° N visible
28 Jan 4.6 04:55:43 10° NNE 04:59:21 18° ENE 05:03:13 10° ESE visible
28 Jan 2.4 06:38:17 10° NNW 06:43:42 49° WSW 06:49:06 10° S visible
28 Jan 2.1 19:39:08 10° SSW 19:44:44 87° WNW 19:48:12 24° NNE visible
29 Jan 4.7 04:40:17 10° NNE 04:43:42 17° ENE 04:47:21 10° E visible
29 Jan 2.3 06:22:38 10° NNW 06:28:06 53° WSW 06:33:34 10° S visible
29 Jan 2.1 19:23:32 10° SSW 19:29:08 87° ESE 19:34:13 13° NNE visible
30 Jan 4.7 04:25:23 11° NNE 04:28:02 16° ENE 04:31:27 10° E visible
30 Jan 2.2 06:07:13 11° NNW 06:12:30 58° WSW 06:18:01 10° S visible
30 Jan 2.1 19:07:56 10° SSW 19:13:31 81° ESE 19:19:08 10° NNE visible
30 Jan 5.0 20:56:41 10° WNW 20:58:19 11° NW 20:59:33 10° NW visible
31 Jan 4.7 04:11:11 14° NE 04:12:21 14° ENE 04:15:31 10° E visible
31 Jan 2.1 05:53:01 20° NNW 05:56:54 62° WSW 06:02:27 10° S visible
31 Jan 2.1 18:52:20 10° SSW 18:57:54 76° ESE 19:03:31 10° NNE visible
31 Jan 4.9 20:40:27 10° WNW 20:42:39 12° NW 20:44:27 10° NW visible
01 Feb 4.8 03:57:06 13° ENE 03:57:06 13° ENE 03:59:33 10° E visible
01 Feb 2.1 05:38:57 35° NW 05:41:18 67° WSW 05:46:53 10° S visible
01 Feb 2.2 18:36:46 10° S 18:42:18 70° ESE 18:47:53 10° NNE visible
01 Feb 4.9 20:24:22 10° W 20:26:57 13° NW 20:29:13 10° NNW visible
02 Feb 5.1 03:43:06 11° ENE 03:43:06 11° ENE 03:43:31 10° E visible
02 Feb 2.0 05:24:57 64° WNW 05:25:41 73° WSW 05:31:19 10° S visible
02 Feb 4.8 20:08:21 10° W 20:11:17 14° NW 20:13:55 10° NNW visible
03 Feb 2.3 05:11:02 62° S 05:11:02 62° S 05:15:44 10° SSE visible
03 Feb 4.8 19:52:23 10° W 19:55:37 15° WNW 19:58:33 10° NNW visible
